StationID,Date,MaxTemp,MinTemp,Precipitation,Snowfall,SnowDepth
"USW00056401","2013-08-10",58.10,44.24,53.00,,
"USW00056401","2013-08-11",69.08,46.94,0.00,,
"USW00056401","2013-08-12",76.10,39.56,0.00,,
"USW00056401","2013-08-13",77.00,44.42,0.00,,
"USW00056401","2013-08-14",71.96,39.56,0.00,,
"USW00056401","2013-08-15",64.04,47.30,9.00,,
"USW00056401","2013-08-16",67.82,41.36,0.00,,
"USW00056401","2013-08-17",65.84,43.52,113.00,,
"USW00056401","2013-08-18",51.98,47.84,91.00,,
"USW00056401","2013-08-19",55.76,45.32,71.00,,
"USW00056401","2013-08-20",48.38,42.08,397.00,,
"USW00056401","2013-08-21",46.22,39.74,205.00,,
"USW00056401","2013-08-22",50.36,42.98,42.00,,
"USW00056401","2013-08-23",51.26,41.90,144.00,,
"USW00056401","2013-08-24",54.32,33.80,0.00,,
"USW00056401","2013-08-25",58.10,28.58,0.00,,
"USW00056401","2013-08-26",61.16,28.94,0.00,,
"USW00056401","2013-08-27",62.78,29.84,0.00,,
"USW00056401","2013-08-28",54.14,38.12,52.00,,
"USW00056401","2013-08-29",57.74,42.62,0.00,,
"USW00056401","2013-08-30",51.44,40.64,31.00,,
"USW00056401","2013-08-31",46.40,38.48,129.00,,
"USW00056401","2013-09-01",51.62,37.04,45.00,,
"USW00056401","2013-09-02",53.96,44.78,127.00,,
"USW00056401","2013-09-03",59.54,44.78,27.00,,
"USW00056401","2013-09-04",50.36,39.74,33.00,,
"USW00056401","2013-09-05",53.78,33.44,0.00,,
"USW00056401","2013-09-06",48.02,32.36,47.00,,
"USW00056401","2013-09-07",58.46,40.46,15.00,,
"USW00056401","2013-09-08",47.66,40.82,133.00,,
"USW00056401","2013-09-09",52.88,35.96,0.00,,
"USW00056401","2013-09-10",52.88,35.24,6.00,,
"USW00056401","2013-09-11",53.06,41.36,164.00,,
"USW00056401","2013-09-12",53.42,32.90,0.00,,
"USW00056401","2013-09-13",47.30,31.82,9.00,,
"USW00056401","2013-09-14",57.56,29.30,3.00,,
"USW00056401","2013-09-15",53.42,34.52,0.00,,
"USW00056401","2013-09-16",53.60,33.26,0.00,,
"USW00056401","2013-09-17",37.58,32.18,147.00,,
"USW00056401","2013-09-18",32.54,28.22,247.00,,
"USW00056401","2013-09-19",33.08,26.42,31.00,,
"USW00056401","2013-09-20",31.46,19.04,0.00,,
"USW00056401","2013-09-21",38.12,18.68,0.00,,
"USW00056401","2013-09-22",30.74,25.52,0.00,,
"USW00056401","2013-09-23",31.10,24.80,0.00,,
"USW00056401","2013-09-24",36.14,24.98,0.00,,
"USW00056401","2013-09-25",46.58,32.36,4.00,,
"USW00056401","2013-09-26",40.82,34.34,60.00,,
"USW00056401","2013-09-27",47.48,28.94,0.00,,
"USW00056401","2013-09-28",39.92,25.88,0.00,,
"USW00056401","2013-09-29",43.16,33.80,0.00,,
"USW00056401","2013-09-30",39.20,30.92,0.00,,
"USW00056401","2013-10-01",39.02,29.48,0.00,,
"USW00056401","2013-10-02",46.22,30.56,2.00,,
"USW00056401","2013-10-03",46.04,29.66,0.00,,
"USW00056401","2013-10-04",41.00,31.46,56.00,,
"USW00056401","2013-10-05",39.74,30.02,38.00,,
"USW00056401","2013-10-06",39.38,31.28,10.00,,
"USW00056401","2013-10-07",40.10,29.48,2.00,,
"USW00056401","2013-10-08",34.70,29.84,273.00,,
"USW00056401","2013-10-09",35.06,21.74,9.00,,
"USW00056401","2013-10-10",34.34,17.42,26.00,,
"USW00056401","2013-10-11",39.56,31.28,33.00,,
"USW00056401","2013-10-12",43.70,32.36,0.00,,
"USW00056401","2013-10-13",39.56,31.10,16.00,,
"USW00056401","2013-10-14",40.64,31.10,0.00,,
"USW00056401","2013-10-15",41.18,34.70,13.00,,
"USW00056401","2013-10-16",47.48,33.62,0.00,,
"USW00056401","2013-10-17",43.70,33.26,72.00,,
"USW00056401","2013-10-18",45.32,30.38,0.00,,
"USW00056401","2013-10-19",47.66,28.22,0.00,,
"USW00056401","2013-10-20",40.46,25.52,4.00,,
"USW00056401","2013-10-21",38.48,22.10,0.00,,
"USW00056401","2013-10-22",38.12,23.00,6.00,,
"USW00056401","2013-10-23",31.82,12.56,0.00,,
"USW00056401","2013-10-24",34.16,10.40,0.00,,
"USW00056401","2013-10-25",37.76,30.20,13.00,,
"USW00056401","2013-10-26",36.14,19.04,0.00,,
"USW00056401","2013-10-27",33.26,20.84,157.00,,
"USW00056401","2013-10-28",48.56,32.54,12.00,,
"USW00056401","2013-10-29",39.02,27.32,0.00,,
"USW00056401","2013-10-30",35.96,28.40,9.00,,
"USW00056401","2013-10-31",34.70,25.52,38.00,,
"USW00056401","2013-11-01",33.08,24.08,74.00,,
"USW00056401","2013-11-02",30.02,24.26,4.00,,
"USW00056401","2013-11-03",31.46,18.86,0.00,,
"USW00056401","2013-11-04",27.86,17.78,0.00,,
"USW00056401","2013-11-05",27.32,14.72,0.00,,
"USW00056401","2013-11-06",,,0.00,,
"USW00056401","2013-11-07",13.82,-9.04,0.00,,
"USW00056401","2013-11-08",10.76,-5.08,0.00,,
"USW00056401","2013-11-09",17.24,-8.86,5.00,,
"USW00056401","2013-11-10",31.64,17.06,349.00,,
"USW00056401","2013-11-11",22.28,9.86,140.00,,
"USW00056401","2013-11-12",10.76,-18.40,0.00,,
"USW00056401","2013-11-13",13.46,-12.64,0.00,,
"USW00056401","2013-11-14",27.50,2.84,11.00,,
"USW00056401","2013-11-15",15.98,-1.66,0.00,,
"USW00056401","2013-11-16",11.12,-6.88,0.00,,
"USW00056401","2013-11-17",4.10,-16.96,0.00,,
"USW00056401","2013-11-18",-13.54,-29.02,0.00,,
"USW00056401","2013-11-19",-21.64,-38.02,0.00,,
"USW00056401","2013-11-20",-20.20,-41.62,0.00,,
"USW00056401","2013-11-21",-5.98,-41.44,0.00,,
"USW00056401","2013-11-22",21.56,-5.98,13.00,,
"USW00056401","2013-11-23",24.26,-2.38,8.00,,
"USW00056401","2013-11-24",25.34,1.04,20.00,,
"USW00056401","2013-11-25",22.10,3.56,0.00,,
"USW00056401","2013-11-26",18.50,11.12,0.00,,
"USW00056401","2013-11-27",26.06,9.86,69.00,,
"USW00056401","2013-11-28",9.86,-13.36,21.00,,
"USW00056401","2013-11-29",-5.62,-30.28,0.00,,
"USW00056401","2013-11-30",-5.80,-33.16,0.00,,
"USW00056401","2013-12-01",-6.34,-30.64,0.00,,
"USW00056401","2013-12-02",-7.96,-22.36,0.00,,
"USW00056401","2013-12-03",5.72,-8.50,0.00,,
"USW00056401","2013-12-04",1.22,-7.42,0.00,,
"USW00056401","2013-12-05",19.76,0.86,0.00,,
"USW00056401","2013-12-06",24.98,19.76,0.00,,
"USW00056401","2013-12-07",26.24,23.18,4.00,,
"USW00056401","2013-12-08",25.88,17.60,4.00,,
"USW00056401","2013-12-09",18.32,6.08,0.00,,
"USW00056401","2013-12-10",14.18,3.56,12.00,,
"USW00056401","2013-12-11",7.52,1.58,0.00,,
"USW00056401","2013-12-12",8.78,-4.36,0.00,,
"USW00056401","2013-12-13",4.82,-5.80,58.00,,
"USW00056401","2013-12-14",9.68,-0.04,69.00,,
"USW00056401","2013-12-15",6.26,-9.40,21.00,,
"USW00056401","2013-12-16",-3.10,-13.36,0.00,,
"USW00056401","2013-12-17",-12.64,-33.70,0.00,,
"USW00056401","2013-12-18",-0.76,-37.84,7.00,,
"USW00056401","2013-12-19",12.20,-15.52,44.00,,
"USW00056401","2013-12-20",2.30,-18.40,0.00,,
"USW00056401","2013-12-21",19.22,2.12,97.00,,
"USW00056401","2013-12-22",24.08,9.86,81.00,,
"USW00056401","2013-12-23",9.86,-20.74,27.00,,
"USW00056401","2013-12-24",-13.36,-33.52,0.00,,
"USW00056401","2013-12-25",-27.22,-39.64,0.00,,
"USW00056401","2013-12-26",-17.14,-40.90,0.00,,
"USW00056401","2013-12-27",-3.46,-35.86,0.00,,
"USW00056401","2013-12-28",6.80,-4.00,84.00,,
"USW00056401","2013-12-29",5.72,-10.48,0.00,,
"USW00056401","2013-12-30",-4.18,-18.76,0.00,,
"USW00056401","2013-12-31",16.52,-6.88,0.00,,
"USW00056401","2014-01-01",22.28,12.38,69.00,,
"USW00056401","2014-01-02",23.00,13.82,14.00,,
"USW00056401","2014-01-03",21.02,12.74,20.00,,
"USW00056401","2014-01-04",22.64,6.62,109.00,,
"USW00056401","2014-01-05",30.02,20.84,0.00,,
"USW00056401","2014-01-06",28.76,17.06,0.00,,
"USW00056401","2014-01-07",24.44,15.98,2.00,,
"USW00056401","2014-01-08",22.10,9.14,11.00,,
"USW00056401","2014-01-09",22.10,10.04,17.00,,
"USW00056401","2014-01-10",10.40,1.40,2.00,,
"USW00056401","2014-01-11",4.46,-18.04,0.00,,
"USW00056401","2014-01-12",-3.28,-27.58,9.00,,
"USW00056401","2014-01-13",16.70,-4.72,6.00,,
"USW00056401","2014-01-14",25.16,16.52,23.00,,
"USW00056401","2014-01-15",24.26,13.82,69.00,,
"USW00056401","2014-01-16",31.46,23.72,27.00,,
"USW00056401","2014-01-17",38.12,26.24,40.00,,
"USW00056401","2014-01-18",33.80,25.70,50.00,,
"USW00056401","2014-01-19",27.50,17.96,0.00,,
"USW00056401","2014-01-20",26.60,8.96,0.00,,
"USW00056401","2014-01-21",34.88,6.26,0.00,,
"USW00056401","2014-01-22",35.42,26.06,56.00,,
"USW00056401","2014-01-23",37.94,32.18,152.00,,
"USW00056401","2014-01-24",37.22,28.22,104.00,,
"USW00056401","2014-01-25",38.12,23.36,4.00,,
"USW00056401","2014-01-26",35.60,19.22,0.00,,
"USW00056401","2014-01-27",24.44,9.86,0.00,,
"USW00056401","2014-01-28",30.74,14.90,7.00,,
"USW00056401","2014-01-29",29.30,-3.10,0.00,,
"USW00056401","2014-01-30",6.08,-9.04,0.00,,
"USW00056401","2014-01-31",4.28,-15.70,0.00,,
"USW00056401","2014-02-01",5.18,-15.70,0.00,,
"USW00056401","2014-02-02",15.08,-10.84,0.00,,
"USW00056401","2014-02-03",6.08,-14.26,0.00,,
"USW00056401","2014-02-04",2.12,-19.48,0.00,,
"USW00056401","2014-02-05",-1.66,-24.34,0.00,,
"USW00056401","2014-02-06",9.86,-18.76,12.00,,
"USW00056401","2014-02-07",9.68,-0.76,0.00,,
"USW00056401","2014-02-08",2.12,-14.26,0.00,,
"USW00056401","2014-02-09",0.68,-15.88,0.00,,
"USW00056401","2014-02-10",-5.44,-26.14,0.00,,
"USW00056401","2014-02-11",-9.76,-32.44,0.00,,
"USW00056401","2014-02-12",-8.14,-28.48,0.00,,
"USW00056401","2014-02-13",-3.46,-16.06,0.00,,
"USW00056401","2014-02-14",5.72,-17.50,0.00,,
"USW00056401","2014-02-15",9.68,-1.30,43.00,,
"USW00056401","2014-02-16",13.46,-5.26,0.00,,
"USW00056401","2014-02-17",14.00,-5.80,0.00,,
"USW00056401","2014-02-18",13.82,-15.88,0.00,,
"USW00056401","2014-02-19",15.26,-17.50,0.00,,
"USW00056401","2014-02-20",2.66,-10.48,0.00,,
"USW00056401","2014-02-21",4.82,-22.36,0.00,,
"USW00056401","2014-02-22",,,0.00,,
"USW00056401","2014-02-23",10.40,-31.00,0.00,,
"USW00056401","2014-02-24",14.18,-25.60,0.00,,
"USW00056401","2014-02-25",14.90,-23.80,0.00,,
"USW00056401","2014-02-26",23.18,-19.66,0.00,,
"USW00056401","2014-02-27",27.86,-7.24,0.00,,
"USW00056401","2014-02-28",24.62,-7.24,0.00,,
"USW00056401","2014-03-01",26.96,-4.36,0.00,,
"USW00056401","2014-03-02",23.18,-6.52,0.00,,
"USW00056401","2014-03-03",16.70,-10.84,0.00,,
"USW00056401","2014-03-04",16.88,-14.08,14.00,,
"USW00056401","2014-03-05",24.62,5.54,44.00,,
"USW00056401","2014-03-06",7.88,-5.62,0.00,,
"USW00056401","2014-03-07",5.72,-21.46,0.00,,
"USW00056401","2014-03-08",8.78,-23.80,0.00,,
"USW00056401","2014-03-09",6.08,-15.16,0.00,,
"USW00056401","2014-03-10",29.84,-3.10,0.00,,
"USW00056401","2014-03-11",35.06,8.06,0.00,,
"USW00056401","2014-03-12",32.00,8.42,0.00,,
"USW00056401","2014-03-13",32.90,10.94,0.00,,
"USW00056401","2014-03-14",34.16,8.24,0.00,,
"USW00056401","2014-03-15",25.34,-5.08,0.00,,
"USW00056401","2014-03-16",18.50,-13.00,0.00,,
"USW00056401","2014-03-17",23.00,-2.92,0.00,,
"USW00056401","2014-03-18",25.16,14.72,4.00,,
"USW00056401","2014-03-19",19.22,7.70,0.00,,
"USW00056401","2014-03-20",15.98,-2.20,0.00,,
"USW00056401","2014-03-21",19.22,-11.38,0.00,,
"USW00056401","2014-03-22",,,4.00,,
"USW00056401","2014-03-23",25.52,-13.72,0.00,,
"USW00056401","2014-03-24",24.98,-6.16,0.00,,
"USW00056401","2014-03-25",30.92,12.38,0.00,,
"USW00056401","2014-03-26",30.74,2.48,0.00,,
"USW00056401","2014-03-27",23.54,-11.56,4.00,,
"USW00056401","2014-03-28",24.08,-8.14,3.00,,
"USW00056401","2014-03-29",24.44,-12.28,6.00,,
"USW00056401","2014-03-30",23.54,-12.28,3.00,,
"USW00056401","2014-03-31",26.96,-6.52,10.00,,
"USW00056401","2014-04-01",26.42,4.64,9.00,,
"USW00056401","2014-04-02",27.14,-6.34,9.00,,
"USW00056401","2014-04-03",26.60,-7.78,10.00,,
"USW00056401","2014-04-04",29.66,-3.46,5.00,,
"USW00056401","2014-04-05",29.84,4.64,23.00,,
"USW00056401","2014-04-06",34.88,19.76,50.00,,
"USW00056401","2014-04-07",28.94,9.86,8.00,,
"USW00056401","2014-04-08",16.16,8.24,3.00,,
"USW00056401","2014-04-09",10.58,-2.02,0.00,,
"USW00056401","2014-04-10",17.06,-11.02,0.00,,
"USW00056401","2014-04-11",23.72,-16.24,0.00,,
"USW00056401","2014-04-12",33.44,-9.40,0.00,,
"USW00056401","2014-04-13",41.36,16.70,0.00,,
"USW00056401","2014-04-14",35.42,12.38,3.00,,
"USW00056401","2014-04-23",42.62,23.54,0.00,,
"USW00056401","2014-04-24",40.28,22.28,0.00,,
"USW00056401","2014-04-25",42.08,23.00,17.00,,
"USW00056401","2014-04-26",40.64,21.56,2.00,,
"USW00056401","2014-04-27",41.72,21.20,0.00,,
"USW00056401","2014-04-28",42.26,16.88,0.00,,
"USW00056401","2014-05-01",48.20,24.80,0.00,,
"USW00056401","2014-05-02",55.40,31.46,0.00,,
"USW00056401","2014-05-03",52.52,29.84,0.00,,
"USW00056401","2014-05-04",52.16,25.88,2.00,,
"USW00056401","2014-05-05",51.44,32.36,0.00,,
"USW00056401","2014-05-06",49.46,31.10,61.00,,
"USW00056401","2014-05-07",44.96,32.00,8.00,,
"USW00056401","2014-05-08",46.58,33.80,0.00,,
"USW00056401","2014-05-09",47.66,31.28,0.00,,
"USW00056401","2014-05-10",50.54,31.10,0.00,,
"USW00056401","2014-05-11",53.42,27.86,0.00,,
"USW00056401","2014-05-12",57.74,30.56,0.00,,
"USW00056401","2014-05-13",56.84,26.78,0.00,,
"USW00056401","2014-05-14",50.72,31.46,0.00,,
"USW00056401","2014-05-15",58.64,23.54,0.00,,
"USW00056401","2014-05-16",60.62,30.56,0.00,,
"USW00056401","2014-05-17",,,8.00,,
"USW00056401","2014-05-18",48.02,32.36,0.00,,
"USW00056401","2014-05-19",44.78,31.10,0.00,,
"USW00056401","2014-05-20",45.86,30.38,0.00,,
"USW00056401","2014-05-21",47.84,29.48,0.00,,
"USW00056401","2014-05-22",50.18,29.66,0.00,,
"USW00056401","2014-05-23",53.06,24.44,0.00,,
"USW00056401","2014-05-24",54.14,30.38,0.00,,
"USW00056401","2014-05-25",50.90,35.24,0.00,,
"USW00056401","2014-05-26",57.38,29.48,0.00,,
"USW00056401","2014-05-27",50.54,32.18,0.00,,
"USW00056401","2014-05-28",54.86,36.32,0.00,,
"USW00056401","2014-05-29",59.90,33.44,0.00,,
"USW00056401","2014-05-30",55.76,38.30,8.00,,
"USW00056401","2014-05-31",52.16,35.42,2.00,,
"USW00056401","2014-06-01",45.68,33.26,8.00,,
"USW00056401","2014-06-02",49.82,33.62,0.00,,
"USW00056401","2014-06-03",56.30,33.26,0.00,,
"USW00056401","2014-06-04",60.80,29.66,3.00,,
"USW00056401","2014-06-05",58.46,35.06,6.00,,
"USW00056401","2014-06-06",63.14,35.96,2.00,,
"USW00056401","2014-06-07",64.94,31.28,0.00,,
"USW00056401","2014-06-08",55.22,37.76,18.00,,
"USW00056401","2014-06-09",54.50,32.18,21.00,,
"USW00056401","2014-06-10",56.84,34.16,0.00,,
"USW00056401","2014-06-12",57.02,31.82,0.00,,
"USW00056401","2014-06-13",55.76,39.02,0.00,,
"USW00056401","2014-06-14",54.86,39.38,0.00,,
"USW00056401","2014-06-15",61.70,36.86,3.00,,
"USW00056401","2014-06-16",59.72,43.16,2.00,,
"USW00056401","2014-06-17",53.06,39.02,18.00,,
"USW00056401","2014-06-18",41.18,32.18,368.00,,
"USW00056401","2014-06-19",47.66,35.06,52.00,,
"USW00056401","2014-06-20",61.70,31.64,0.00,,
"USW00056401","2014-06-21",53.96,35.60,46.00,,
"USW00056401","2014-06-22",61.88,30.02,0.00,,
"USW00056401","2014-06-23",62.24,34.70,5.00,,
"USW00056401","2014-06-24",54.32,44.60,19.00,,
"USW00056401","2014-06-25",48.74,37.04,288.00,,
"USW00056401","2014-06-26",47.48,38.30,38.00,,
"USW00056401","2014-06-27",56.30,34.70,0.00,,
"USW00056401","2014-06-28",66.02,35.96,0.00,,
"USW00056401","2014-06-29",71.24,43.34,0.00,,
"USW00056401","2014-06-30",51.80,44.78,121.00,,
"USW00056401","2014-07-01",51.44,44.06,177.00,,
"USW00056401","2014-07-02",64.04,46.04,21.00,,
"USW00056401","2014-07-03",66.56,44.78,0.00,,
"USW00056401","2014-07-04",71.24,39.74,0.00,,
"USW00056401","2014-07-05",71.96,46.76,0.00,,
"USW00056401","2014-07-06",65.30,47.84,98.00,,
"USW00056401","2014-07-07",62.96,46.04,0.00,,
"USW00056401","2014-07-08",66.56,39.20,0.00,,
"USW00056401","2014-07-09",65.84,48.56,0.00,,
"USW00056401","2014-07-10",61.16,47.12,29.00,,
"USW00056401","2014-07-11",58.46,46.22,174.00,,
"USW00056401","2014-07-12",66.38,43.70,9.00,,
"USW00056401","2014-07-13",54.50,37.94,97.00,,
"USW00056401","2014-07-14",60.98,33.80,0.00,,
"USW00056401","2014-07-15",57.92,46.40,5.00,,
"USW00056401","2014-07-16",63.68,45.50,0.00,,
"USW00056401","2014-07-17",64.22,40.10,3.00,,
"USW00056401","2014-07-18",67.28,42.44,0.00,,
"USW00056401","2014-07-19",55.76,46.22,54.00,,
"USW00056401","2014-07-20",57.20,40.82,45.00,,
"USW00056401","2014-07-21",65.84,34.16,0.00,,
"USW00056401","2014-07-22",69.98,38.12,0.00,,
"USW00056401","2014-07-23",52.34,44.78,3.00,,
"USW00056401","2014-07-24",60.44,45.50,10.00,,
"USW00056401","2014-07-25",48.56,42.62,43.00,,
"USW00056401","2014-07-26",56.84,39.74,34.00,,
"USW00056401","2014-07-27",54.14,42.26,164.00,,
"USW00056401","2014-07-28",58.46,44.42,25.00,,
"USW00056401","2014-07-29",63.50,40.82,0.00,,
"USW00056401","2014-07-30",65.48,41.54,0.00,,
"USW00056401","2014-07-31",66.92,35.24,0.00,,
"USW00056401","2014-08-01",58.64,43.34,0.00,,
"USW00056401","2014-08-02",60.62,44.60,0.00,,
"USW00056401","2014-08-03",64.94,37.04,29.00,,
"USW00056401","2014-08-04",59.90,46.22,79.00,,
"USW00056401","2014-08-05",62.42,42.62,0.00,,
"USW00056401","2014-08-06",61.16,33.98,3.00,,
"USW00056401","2014-08-07",61.88,40.82,0.00,,
"USW00056401","2014-08-08",55.94,38.48,3.00,,
"USW00056401","2014-08-09",65.12,42.44,0.00,,
"USW00056401","2014-08-10",68.90,38.84,0.00,,
"USW00056401","2014-08-11",66.74,47.48,3.00,,
"USW00056401","2014-08-12",62.42,38.48,0.00,,
"USW00056401","2014-08-13",60.08,42.80,9.00,,
"USW00056401","2014-08-14",63.86,37.58,5.00,,
"USW00056401","2014-08-15",58.10,43.88,50.00,,
"USW00056401","2014-08-16",54.14,35.06,14.00,,
"USW00056401","2014-08-17",49.64,44.24,177.00,,
"USW00056401","2014-08-18",60.44,39.74,38.00,,
"USW00056401","2014-08-19",60.98,33.44,0.00,,
"USW00056401","2014-08-20",62.06,37.22,0.00,,
"USW00056401","2014-08-21",62.96,43.34,5.00,,
"USW00056401","2014-08-22",60.62,40.46,51.00,,
"USW00056401","2014-08-23",63.50,34.88,0.00,,
"USW00056401","2014-08-24",55.76,41.54,41.00,,
"USW00056401","2014-08-25",57.20,42.26,54.00,,
"USW00056401","2014-08-26",56.30,39.02,0.00,,
"USW00056401","2014-08-27",51.26,40.82,5.00,,
"USW00056401","2014-08-28",53.78,39.92,28.00,,
"USW00056401","2014-08-29",47.30,33.62,69.00,,
"USW00056401","2014-08-30",49.10,31.28,0.00,,
"USW00056401","2014-08-31",46.04,28.76,30.00,,
"USW00056401","2014-09-01",48.74,23.36,0.00,,
"USW00056401","2014-09-02",43.52,33.08,98.00,,
"USW00056401","2014-09-03",47.84,28.04,0.00,,
"USW00056401","2014-09-04",50.36,26.78,2.00,,
"USW00056401","2014-09-05",44.96,39.92,123.00,,
"USW00056401","2014-09-06",47.66,38.12,4.00,,
"USW00056401","2014-09-07",53.96,30.74,0.00,,
"USW00056401","2014-09-08",53.42,28.40,0.00,,
"USW00056401","2014-09-09",56.12,36.32,79.00,,
"USW00056401","2014-09-10",50.54,42.26,6.00,,
"USW00056401","2014-09-11",53.60,42.26,0.00,,
"USW00056401","2014-09-12",51.98,41.18,29.00,,
"USW00056401","2014-09-13",64.04,45.50,8.00,,
"USW00056401","2014-09-14",62.42,41.54,35.00,,
"USW00056401","2014-09-15",57.38,36.14,13.00,,
"USW00056401","2014-09-16",53.42,33.08,0.00,,
"USW00056401","2014-09-17",50.18,35.60,4.00,,
"USW00056401","2014-09-18",60.44,35.78,4.00,,
"USW00056401","2014-09-19",55.22,31.64,44.00,,
"USW00056401","2014-09-20",51.44,35.06,51.00,,
"USW00056401","2014-09-21",49.10,32.36,7.00,,
"USW00056401","2014-09-22",42.08,29.12,0.00,,
"USW00056401","2014-09-23",42.80,22.64,0.00,,
"USW00056401","2014-09-24",44.78,25.52,0.00,,
"USW00056401","2014-09-25",47.84,21.92,0.00,,
"USW00056401","2014-09-26",49.82,20.12,0.00,,
"USW00056401","2014-09-27",46.76,18.14,0.00,,
"USW00056401","2014-09-28",46.40,24.44,0.00,,
"USW00056401","2014-09-29",38.12,21.74,0.00,,
"USW00056401","2014-09-30",37.58,25.88,0.00,,
"USW00056401","2014-10-01",39.56,14.54,0.00,,
"USW00056401","2014-10-02",39.56,15.62,0.00,,
"USW00056401","2014-10-03",33.26,23.54,46.00,,
"USW00056401","2014-10-04",32.00,27.32,154.00,,
"USW00056401","2014-10-05",30.20,23.00,72.00,,
"USW00056401","2014-10-06",29.12,16.34,0.00,,
"USW00056401","2014-10-07",22.64,16.16,0.00,,
"USW00056401","2014-10-08",22.28,14.72,19.00,,
"USW00056401","2014-10-09",33.26,14.90,6.00,,
"USW00056401","2014-10-10",38.30,20.30,36.00,,
"USW00056401","2014-10-11",44.24,26.42,67.00,,
"USW00056401","2014-10-12",43.88,28.76,0.00,,
"USW00056401","2014-10-13",37.76,25.52,0.00,,
"USW00056401","2014-10-14",34.88,21.38,0.00,,
"USW00056401","2014-10-15",29.30,16.52,0.00,,
"USW00056401","2014-10-16",35.06,17.96,2.00,,
"USW00056401","2014-10-17",37.58,8.06,0.00,,
"USW00056401","2014-10-18",34.16,8.06,0.00,,
"USW00056401","2014-10-19",29.84,8.96,0.00,,
"USW00056401","2014-10-20",28.94,10.76,21.00,,
"USW00056401","2014-10-21",33.62,8.42,0.00,,
"USW00056401","2014-10-22",29.84,15.98,0.00,,
"USW00056401","2014-10-23",26.24,19.76,2.00,,
"USW00056401","2014-10-24",26.78,17.60,0.00,,
"USW00056401","2014-10-25",23.18,6.62,2.00,,
"USW00056401","2014-10-26",22.64,-2.56,0.00,,
"USW00056401","2014-10-27",15.08,-9.94,0.00,,
"USW00056401","2014-10-28",12.38,-13.18,0.00,,
"USW00056401","2014-10-29",18.50,-8.68,0.00,,
"USW00056401","2014-10-30",21.20,5.18,0.00,,
"USW00056401","2014-10-31",23.72,8.42,0.00,,
"USW00056401","2014-11-01",19.58,1.94,16.00,,
"USW00056401","2014-11-02",20.84,-1.84,2.00,,
"USW00056401","2014-11-03",27.32,10.22,0.00,,
"USW00056401","2014-11-04",23.90,4.82,0.00,,
"USW00056401","2014-11-05",22.64,6.08,0.00,,
"USW00056401","2014-11-06",21.56,-4.18,0.00,,
"USW00056401","2014-11-07",16.70,-9.40,0.00,,
"USW00056401","2014-11-08",24.08,-0.94,0.00,,
"USW00056401","2014-11-09",34.70,13.28,0.00,,
"USW00056401","2014-11-10",33.80,17.24,0.00,,
"USW00056401","2014-11-11",35.24,24.62,0.00,,
"USW00056401","2014-11-12",37.58,19.40,0.00,,
"USW00056401","2014-11-13",23.36,6.44,0.00,,
"USW00056401","2014-11-14",17.42,-0.22,0.00,,
"USW00056401","2014-11-15",15.98,-5.08,0.00,,
"USW00056401","2014-11-16",17.06,-4.90,0.00,,
"USW00056401","2014-11-17",33.26,14.54,0.00,,
"USW00056401","2014-11-18",26.42,5.00,0.00,,
"USW00056401","2014-11-19",29.66,13.46,0.00,,
"USW00056401","2014-11-20",21.20,6.26,0.00,,
"USW00056401","2014-11-21",16.52,5.90,0.00,,
"USW00056401","2014-11-22",19.40,4.28,25.00,,
"USW00056401","2014-11-23",13.82,-1.48,0.00,,
"USW00056401","2014-11-24",19.76,8.78,0.00,,
"USW00056401","2014-11-25",17.96,10.22,17.00,,
"USW00056401","2014-11-26",18.32,-5.80,0.00,,
"USW00056401","2014-11-27",-4.36,-25.60,0.00,,
"USW00056401","2014-11-28",-5.26,-27.22,0.00,,
"USW00056401","2014-11-29",6.08,-16.78,26.00,,
"USW00056401","2014-11-30",4.10,-17.68,0.00,,
"USW00056401","2014-12-01",17.24,-21.10,31.00,,
"USW00056401","2014-12-02",26.78,17.06,152.00,,
"USW00056401","2014-12-03",23.90,6.98,6.00,,
"USW00056401","2014-12-04",22.82,-3.28,9.00,,
"USW00056401","2014-12-05",9.86,-10.66,0.00,,
"USW00056401","2014-12-06",19.22,5.00,16.00,,
"USW00056401","2014-12-07",31.82,19.04,6.00,,
"USW00056401","2014-12-08",23.54,10.04,0.00,,
"USW00056401","2014-12-09",,,0.00,,
"USW00056401","2014-12-10",,,9.00,,
"USW00056401","2014-12-12",,,0.00,,
"USW00056401","2014-12-13",,,0.00,,
"USW00056401","2014-12-14",30.56,16.16,0.00,,
"USW00056401","2014-12-15",26.60,14.72,0.00,,
"USW00056401","2014-12-16",23.00,11.30,0.00,,
"USW00056401","2014-12-17",25.34,-1.84,0.00,,
"USW00056401","2014-12-18",9.14,-14.44,0.00,,
"USW00056401","2014-12-19",8.24,-13.18,0.00,,
"USW00056401","2014-12-20",9.32,-9.04,0.00,,
"USW00056401","2014-12-21",15.26,-0.76,0.00,,
"USW00056401","2014-12-22",21.02,7.34,0.00,,
"USW00056401","2014-12-23",14.90,1.58,0.00,,
"USW00056401","2014-12-24",14.00,0.68,0.00,,
"USW00056401","2014-12-25",21.74,12.20,2.00,,
"USW00056401","2014-12-26",15.62,-2.56,0.00,,
"USW00056401","2014-12-27",7.88,-8.68,0.00,,
"USW00056401","2014-12-28",14.18,-10.12,0.00,,
"USW00056401","2014-12-29",23.18,12.20,0.00,,
"USW00056401","2014-12-30",33.26,20.12,0.00,,
"USW00056401","2014-12-31",32.72,24.26,0.00,,
"USW00056401","2015-01-01",25.88,17.60,0.00,,
"USW00056401","2015-01-02",20.66,-12.46,0.00,,
"USW00056401","2015-01-03",-7.78,-24.70,0.00,,
"USW00056401","2015-01-04",-13.72,-26.86,0.00,,
"USW00056401","2015-01-05",-16.78,-27.58,0.00,,
"USW00056401","2015-01-06",-20.74,-31.72,0.00,,
"USW00056401","2015-01-07",-17.14,-31.00,0.00,,
"USW00056401","2015-01-08",6.98,-22.36,0.00,,
"USW00056401","2015-01-09",18.68,6.98,4.00,,
"USW00056401","2015-01-10",21.92,14.36,3.00,,